Powrót do katalogu

STARLINK-34639

AktywnyŁącznośćVLEO
NORAD 64767·PAYLOAD·🇺🇸 United States

Wystrzelony Jul 8, 2025 z Cape Canaveral Space Force Station

Loading…

Następne Przeloty (najbliższe 24 godziny)

TLE

ŚwieżeSource: CelesTrak SupGP

Epoka: Sep 15, 2026, 03:53 UTC

1 64767C 25147N   26258.16229167 -.00026551  00000+0 -78440-3 0  2580
2 64767  53.1573  78.6849 0001016 104.2964  17.8565 15.34406017    16

Śledź STARLINK-34639 w czasie rzeczywistym z AllMySat

Download on the App Store